[[{"header":{"parameterUnit":"m.s-1","parameterCategory":1,"la1":30.2991,"la2":30.254,"lo1":-89.0895,"lo2":-89.0444,"dy":0.0017,"dx":0.0017,"nx":28,"ny":28,"refTime":"2025-02-06T09:00:00:Z","depth":0,"parameterNumber":2,"parameterNumberName":"U-component_of_WINDS"},"data":[0,0,0,0,0,0,0,0,0,0,0,0,0,0,0,0,0,0,0,0,0,0,0,0,0,0,0,0,0,0,0,0,0,0,0,0,0,0,0,0,0,0,0,0,0,0,0,0,0,0,0,0,0,0,0,0,0,0,-0.8125,-0.8124,0,-0.8063,-0.8063,-0.8062,-0.8016,-0.8016,-0.8015,-0.8015,-0.7953,-0.7952,-0.795,0,0,0,0,0,0,0,0,0,0,0,0,0,-0.8204,-0.8203,-0.8125,-0.8124,-0.8124,-0.8063,-0.8063,-0.8062,-0.8016,-0.8016,-0.8015,-0.8015,-0.7953,-0.7952,-0.795,0,0,0,0,0,0,0,0,0,0,0,0,0,-0.8159,-0.8203,-0.8125,-0.8094,-0.809,-0.8064,-0.8063,-0.8062,-0.8016,-0.8016,-0.8015,-0.8015,-0.7954,-0.7952,-0.795,-0.7951,0,0,-0.7944,-0.7943,0,0,0,0,0,0,0,0,-0.8162,-0.8156,-0.8099,-0.8096,-0.8092,-0.8047,-0.8068,-0.8024,-0.8017,-0.8044,-0.8015,-0.8014,-0.7985,-0.798,-0.797,-0.7948,-0.7945,-0.7944,-0.7943,-0.7942,-0.7942,0,0,0,0,0,0,0,-0.8165,-0.8159,-0.8101,-0.8098,-0.8094,-0.8083,-0.8076,-0.8059,-0.8019,-0.8042,-0.8039,-0.8032,-0.7983,-0.7972,-0.7968,-0.7944,-0.7944,-0.7943,-0.7941,-0.7941,-0.7918,-0.7919,0,0,0,0,0,0,-0.8173,-0.8161,-0.8103,-0.8099,-0.8126,-0.8082,-0.8074,-0.8062,-0.8019,-0.8012,-0.8032,-0.803,-0.7976,-0.7971,-0.7966,-0.7962,-0.7942,-0.794,-0.7939,-0.7918,-0.7918,-0.7919,0,0,0,0,0,0,-0.8175,-0.8168,-0.8105,-0.8129,-0.812,-0.8081,-0.8068,-0.8061,-0.805,-0.8012,-0.8004,-0.8029,-0.7975,-0.7969,-0.7954,-0.796,-0.794,-0.7938,-0.7917,-0.7918,-0.7918,-0.7956,0,0,0,0,0,0,-0.8177,-0.8169,-0.8168,-0.8129,-0.8119,-0.8094,-0.8068,-0.806,-0.8047,-0.8043,-0.8006,-0.8,-0.7974,-0.7958,-0.7953,-0.7957,-0.7936,-0.7916,-0.7917,-0.7918,-0.7954,-0.7958,-0.7962,0,0,0,0,0,-0.818,-0.8182,-0.8169,-0.8162,-0.8118,-0.8095,-0.8089,-0.8059,-0.8048,-0.8047,-0.8022,-0.8001,-0.796,-0.7956,-0.795,-0.7954,-0.7916,-0.7917,-0.7918,-0.7953,-0.7958,-0.7962,0,0,0,0,0,0,-0.8223,-0.8176,-0.8161,-0.815,-0.8127,-0.8087,-0.8085,-0.8065,-0.8045,-0.8042,-0.8006,-0.7999,-0.7988,-0.797,-0.7966,-0.7952,-0.7935,-0.7936,-0.7964,-0.7968,-0.7972,-0.7976,-0.7935,0,0,0,0,0,-0.8231,-0.8216,-0.8176,-0.8171,-0.816,-0.8125,-0.8113,-0.8093,-0.8067,-0.8057,-0.8031,-0.8007,-0.7989,-0.7978,-0.7959,-0.7952,-0.7943,-0.7952,-0.7956,-0.7959,-0.7959,-0.7953,-0.7956,-0.7923,-0.7923,-0.7923,0,0,-0.8247,-0.822,-0.8213,-0.8178,-0.8158,-0.8143,-0.8116,-0.8102,-0.8091,-0.8055,-0.8039,-0.802,-0.7991,-0.798,-0.7974,-0.7965,-0.7966,-0.796,-0.7963,-0.7961,-0.7955,-0.7958,-0.7961,-0.7924,-0.7924,-0.7923,0,0,-0.827,-0.8248,-0.824,-0.822,-0.8189,-0.8166,-0.8164,-0.8128,-0.8113,-0.8097,-0.8069,-0.8056,-0.8026,-0.8006,-0.7992,-0.8008,-0.7987,-0.8003,-0.8021,-0.8016,-0.8019,-0.8021,-0.8025,-0.8027,-0.8003,-0.8003,-0.8003,0,-0.8294,-0.827,-0.8239,-0.8226,-0.8211,-0.8178,-0.817,-0.8152,-0.8117,-0.8108,-0.8098,-0.8059,-0.8037,-0.8021,-0.8025,-0.8015,-0.8012,-0.8006,-0.8021,-0.8023,-0.8024,-0.8028,-0.803,-0.8005,-0.8005,-0.8005,-0.8005,0,-0.8302,-0.8286,-0.8283,-0.8249,-0.8235,-0.8225,-0.8192,-0.8181,-0.8162,-0.814,-0.8124,-0.8097,-0.8071,-0.8067,-0.8048,-0.8048,-0.8043,-0.8028,-0.801,-0.803,-0.8033,-0.8034,-0.8008,-0.8007,-0.8007,-0.8006,0,0,-0.8348,-0.8297,-0.8296,-0.828,-0.8244,-0.8231,-0.822,-0.8195,-0.8185,-0.8163,-0.8152,-0.8127,-0.8113,-0.8097,-0.8076,-0.8072,-0.8084,-0.8057,-0.8056,-0.8062,-0.8081,-0.8092,-0.8094,-0.8071,-0.8072,-0.8072,-0.8083,0,-0.8363,-0.834,-0.8311,-0.8297,-0.8282,-0.825,-0.824,-0.8217,-0.8197,-0.8181,-0.8158,-0.8141,-0.8124,-0.8114,-0.8108,-0.8084,-0.8088,-0.8083,-0.806,-0.806,-0.8067,-0.8096,-0.8107,-0.8119,-0.8085,-0.8085,-0.8085,0,-0.8378,-0.8356,-0.834,-0.8305,-0.8297,-0.8289,-0.8263,-0.8249,-0.8222,-0.8207,-0.819,-0.8167,-0.8154,-0.8139,-0.812,-0.8117,-0.8106,-0.8093,-0.8093,-0.8088,-0.8072,-0.8091,-0.8122,-0.8124,-0.8087,-0.8086,-0.8086,0,-0.8411,-0.8378,-0.8364,-0.8352,-0.8311,-0.8305,-0.8288,-0.826,-0.8247,-0.8225,-0.8216,-0.8194,-0.8181,-0.8164,-0.8136,-0.8128,-0.8119,-0.8103,-0.8106,-0.8107,-0.8104,-0.8104,-0.8133,-0.81,-0.81,-0.81,-0.81,0,-0.8431,-0.8422,-0.8379,-0.837,-0.836,-0.8328,-0.8318,-0.8298,-0.8274,-0.8261,-0.8233,-0.8222,-0.8186,-0.8171,-0.8149,-0.8136,-0.8131,-0.8118,-0.8112,-0.8119,-0.8121,-0.8111,-0.8109,-0.8101,-0.81,-0.81,-0.81,0,-0.8466,-0.8437,-0.8419,-0.8381,-0.8372,-0.8366,-0.8333,-0.8324,-0.8302,-0.8286,-0.828,-0.8246,-0.8226,-0.8197,-0.8169,-0.8154,-0.8144,-0.8135,-0.8153,-0.8149,-0.8153,-0.8153,-0.8175,-0.8176,-0.8144,-0.8145,-0.8145,0,-0.8479,-0.8472,-0.8433,-0.8422,-0.8406,-0.8389,-0.8375,-0.8343,-0.833,-0.8299,-0.8293,-0.8271,-0.8252,-0.8222,-0.8194,-0.8173,-0.8162,-0.8172,-0.8159,-0.8166,-0.8161,-0.8161,-0.816,-0.8174,-0.8175,-0.8175,-0.8176,0,-0.8506,-0.8492,-0.8473,-0.8448,-0.8432,-0.8412,-0.839,-0.8383,-0.8347,-0.8334,-0.8313,-0.8298,-0.8269,-0.8247,-0.8221,-0.8204,-0.8184,-0.818,-0.818,-0.8186,-0.8196,-0.819,-0.8159,-0.8179,-0.8179,-0.8179,-0.8179,-0.8178,-0.853,-0.8521,-0.8492,-0.8472,-0.8452,-0.8433,-0.8421,-0.8398,-0.838,-0.8353,-0.8336,-0.8316,-0.829,-0.8253,-0.8237,-0.8221,-0.8212,-0.8212,-0.8211,-0.8211,-0.8213,-0.82,-0.8216,-0.8216,-0.8216,-0.8216,-0.8216,0,-0.8554,-0.8534,-0.8515,-0.8485,-0.8469,-0.8452,-0.8427,-0.8414,-0.8397,-0.8374,-0.8355,-0.8331,-0.831,-0.8281,-0.8258,-0.8251,-0.8241,-0.8246,-0.8245,-0.8241,-0.8223,-0.8225,-0.8254,-0.8254,-0.8254,-0.8254,-0.8254,-0.8254,-0.8564,-0.8549,-0.8531,-0.8506,-0.8486,-0.8465,-0.8452,-0.8434,-0.8415,-0.8389,-0.8371,-0.8353,-0.8327,-0.8302,-0.8282,-0.8274,-0.8267,-0.8274,-0.8263,-0.8246,-0.8243,-0.8239,-0.8241,-0.8273,-0.8273,-0.8283,-0.8283,-0.8283]},{"header":{"parameterUnit":"m.s-1","parameterCategory":1,"la1":30.2991,"la2":30.254,"lo1":-89.0895,"lo2":-89.0444,"dy":0.0017,"dx":0.0017,"nx":28,"ny":28,"refTime":"2025-02-06T09:00:00:Z","depth":0,"parameterNumber":3,"parameterNumberName":"V-component_of_WINDS"},"data":[0,0,0,0,0,0,0,0,0,0,0,0,0,0,0,0,0,0,0,0,0,0,0,0,0,0,0,0,0,0,0,0,0,0,0,0,0,0,0,0,0,0,0,0,0,0,0,0,0,0,0,0,0,0,0,0,0,0,2.238,2.2381,0,2.2479,2.248,2.2481,2.2504,2.2503,2.2502,2.2502,2.26,2.2604,2.2607,0,0,0,0,0,0,0,0,0,0,0,0,0,2.2208,2.2211,2.238,2.2381,2.2383,2.2479,2.248,2.2482,2.2504,2.2503,2.2502,2.2501,2.2599,2.2603,2.2607,0,0,0,0,0,0,0,0,0,0,0,0,0,2.2292,2.2212,2.238,2.2405,2.2409,2.2479,2.248,2.2482,2.2504,2.2503,2.2502,2.2501,2.2598,2.2603,2.2608,2.2659,0,0,2.2623,2.2625,0,0,0,0,0,0,0,0,2.2287,2.2298,2.24,2.2404,2.2408,2.2478,2.2456,2.2541,2.2504,2.2468,2.2502,2.2501,2.256,2.2568,2.2589,2.2663,2.2667,2.2623,2.2626,2.2628,2.263,0,0,0,0,0,0,0,2.2281,2.2294,2.2419,2.2402,2.2406,2.2411,2.2422,2.2472,2.2519,2.2471,2.2473,2.2484,2.2562,2.2584,2.2592,2.2669,2.2623,2.2627,2.263,2.2632,2.2791,2.2792,0,0,0,0,0,0,2.2272,2.2289,2.2416,2.2422,2.2344,2.2415,2.2427,2.2456,2.2518,2.2527,2.2485,2.2485,2.2576,2.2586,2.2595,2.266,2.2628,2.2633,2.2636,2.2789,2.2791,2.2792,0,0,0,0,0,0,2.2268,2.2283,2.2412,2.2356,2.2373,2.2419,2.2452,2.2459,2.2481,2.2529,2.2537,2.2499,2.2576,2.2588,2.2643,2.2664,2.2635,2.2639,2.2788,2.279,2.2792,2.279,0,0,0,0,0,0,2.2263,2.2281,2.2302,2.2357,2.2376,2.2459,2.2453,2.2462,2.249,2.2491,2.2545,2.2552,2.2576,2.2636,2.2648,2.267,2.2643,2.2786,2.2789,2.2791,2.2788,2.2791,2.2794,0,0,0,0,0,2.2256,2.2296,2.2303,2.2318,2.2403,2.246,2.2471,2.2499,2.2491,2.2512,2.2543,2.2551,2.2659,2.2641,2.2655,2.2679,2.2785,2.2788,2.2791,2.2787,2.2791,2.2794,0,0,0,0,0,0,2.2242,2.2304,2.2312,2.2371,2.241,2.2464,2.2491,2.2502,2.2544,2.2542,2.2573,2.2585,2.2639,2.2664,2.2643,2.2732,2.2722,2.2728,2.2714,2.2718,2.2721,2.2714,2.2647,0,0,0,0,0,2.2245,2.2288,2.2339,2.2386,2.2406,2.2445,2.2471,2.2489,2.2531,2.2547,2.2582,2.2621,2.2665,2.2692,2.2734,2.2791,2.2804,2.2814,2.2817,2.2819,2.2825,2.2857,2.2863,2.2802,2.2802,2.2802,0,0,2.2253,2.2292,2.2317,2.2384,2.2417,2.246,2.2459,2.2504,2.2536,2.2554,2.2609,2.2635,2.2681,2.2738,2.2764,2.276,2.2844,2.2823,2.2824,2.2829,2.2861,2.2867,2.2872,2.2804,2.2803,2.2803,0,0,2.229,2.2324,2.2367,2.24,2.245,2.2476,2.2486,2.2539,2.2557,2.2613,2.2627,2.2665,2.2738,2.2771,2.2797,2.2846,2.2855,2.2858,2.2875,2.2906,2.2911,2.2916,2.2934,2.2941,2.2863,2.2863,2.2863,0,2.2294,2.236,2.2388,2.2433,2.2462,2.2481,2.2525,2.2555,2.2616,2.2635,2.263,2.2723,2.2755,2.282,2.2833,2.2852,2.2865,2.2854,2.2908,2.2913,2.2918,2.2936,2.2943,2.2863,2.2863,2.2863,2.2863,0,2.2362,2.2408,2.2436,2.2496,2.2528,2.2573,2.2607,2.2636,2.265,2.2676,2.2733,2.2772,2.2823,2.2839,2.2853,2.2906,2.2902,2.2902,2.2893,2.2923,2.2941,2.2948,2.2864,2.2864,2.2864,2.2863,0,0,2.2394,2.2469,2.2479,2.2507,2.2563,2.2598,2.2643,2.2694,2.2719,2.2759,2.2798,2.2859,2.286,2.2889,2.2907,2.2934,2.2972,2.2931,2.2933,2.2939,2.3034,2.3036,2.3043,2.2978,2.2979,2.298,2.3031,0,2.2439,2.2522,2.2548,2.2616,2.2659,2.2677,2.2716,2.2754,2.2779,2.2818,2.2845,2.2889,2.2886,2.2904,2.2932,2.2962,2.2992,2.2958,2.3014,2.3016,2.3005,2.3052,2.3054,2.31,2.3038,2.3039,2.304,0,2.2503,2.2547,2.262,2.2671,2.269,2.2725,2.2774,2.2811,2.2854,2.287,2.2904,2.2919,2.2966,2.2953,2.3018,2.2994,2.3018,2.3036,2.3039,2.3047,2.3031,2.3063,2.3115,2.3123,2.3051,2.305,2.3049,0,2.2522,2.2598,2.2652,2.2674,2.2735,2.2759,2.2785,2.2828,2.2857,2.2899,2.2918,2.2964,2.299,2.3026,2.3053,2.304,2.3116,2.3105,2.3131,2.3131,2.3148,2.3147,2.3207,2.316,2.316,2.316,2.316,0,2.2571,2.2615,2.2661,2.2694,2.2744,2.2773,2.2822,2.2848,2.2886,2.2925,2.2941,2.2977,2.301,2.3049,2.3071,2.3122,2.3133,2.3148,2.3153,2.3147,2.3146,2.3165,2.3163,2.3162,2.3162,2.3161,2.3161,0,2.26,2.2633,2.2693,2.2746,2.276,2.2794,2.2839,2.2872,2.2897,2.2946,2.2958,2.2998,2.3046,2.3076,2.3136,2.315,2.3207,2.3211,2.3193,2.3196,2.3222,2.322,2.3298,2.331,2.3253,2.3254,2.3254,0,2.2631,2.2665,2.2722,2.275,2.2776,2.282,2.285,2.2879,2.291,2.2962,2.2988,2.3037,2.3078,2.3153,2.3187,2.3233,2.3239,2.3263,2.3246,2.3239,2.3241,2.324,2.3244,2.3266,2.3266,2.3267,2.3267,0,2.2681,2.2696,2.2739,2.2788,2.2823,2.2863,2.2902,2.2923,2.2959,2.2993,2.3042,2.3074,2.3136,2.3184,2.3233,2.3259,2.327,2.3272,2.3281,2.3276,2.3266,2.3274,2.3203,2.327,2.327,2.327,2.327,2.327,2.2714,2.2746,2.2791,2.2839,2.2872,2.2908,2.2942,2.2972,2.3014,2.3067,2.3081,2.3133,2.3175,2.3243,2.327,2.331,2.3307,2.3319,2.3323,2.3326,2.3328,2.3257,2.3319,2.3319,2.3319,2.3319,2.3318,0,2.2767,2.2797,2.284,2.2896,2.2933,2.2939,2.2983,2.3014,2.306,2.3099,2.3139,2.3196,2.3243,2.328,2.3328,2.3353,2.3359,2.3365,2.3364,2.3371,2.3327,2.3315,2.336,2.3359,2.3359,2.3359,2.3359,2.3359,2.28,2.2855,2.2874,2.2946,2.2975,2.3027,2.3052,2.3085,2.3117,2.318,2.3219,2.3243,2.3282,2.3333,2.3376,2.3385,2.3403,2.3408,2.3419,2.3378,2.3373,2.3369,2.3359,2.3411,2.3411,2.346,2.346,2.3461]}]]